Погода в Армавире

Погода в Армавире : погода сейчас, прогноз погоды и архив. Всё, что Вы хотите узнать о погоде в Армавире!

Поиск расширенной информации на нашем сайте:

Другие новости

Новости СМИ2

Главная страница сайта

Новости сайта

03.07.2017

Напоминаем, что на нашем специализированном сайте Метеоцентр.Азия вы можете получить высокодетализированные автоматические прогнозы погоды по пунктам России, СНГ и мира в авиационном формате (включающие направление и скорость ветра, видимость, явления погоды, количество и форму облачности, нижнюю и верхнюю границу облачности).

Рекомендуем: Религия и нравы

Погода в Армавире - сегодня

Время (UTC), дата Ветер
(°,м/с) 
Видим.   Явления Облачность Т
(°С)
Тd
(°С)
f(%) Тe
(°С)
Pmin
(гПа)
dP
(гПа)
Po
(мм)
O2
(г/м3)
Тmin Tmax R s Состояние
почвы
03 18.07.17 тихо ()   10 км    1/1 600 м 
[Cu hum]
+18.6 +16.4 87 +30  1012.6  1.2  746  278  +17.4        сухая 
06 18.07.17 230 (ЮЗ) 10 км    ясно 
+26 +16.3 55 +37  1012.6  0.4  746  271           
09 18.07.17 340 (С) 10 км    3/0 верхняя 
[Cc]
+30.4 +17.3 45 +44  1011.2  -1.1  745  266           
12 18.07.17 020 (С) 10 км    3/0 средняя, верхняя 
[Ac cast|Cc]
+34.3 +12.3 26 +39  1009.8  -1.3  744  264           
15 18.07.17 050 (СВ) 10 км  {гроза}  6/4 600 м средняя 
[Sc|Ac cast]
+33.7 +14.1 31 +41  1009  -0.8  744  264    +35       
18 18.07.17 280 (З) 10 км  {гроза}  3/0 средняя 
[Ac cast]
+24.5 +17.2 64 +37  1009.8  0.3  744  271           
21 18.07.17 030 (СВ) 10 км    ясно 
+24.5 +15.2 56 +34  1010.2  0.3  744  272           
00 19.07.17 тихо ()   10 км    3/0 верхняя 
[Ci fib]
+20.9 +16.4 75 +32  1010.2  -0.2  744  275           
03 19.07.17 300 (СЗ) 10 км    9/9 600 м 
[Sc]
+20.1 +17.4 84 +33  1010.6  0.4  744  275  +18.5        сухая 
06 19.07.17 020 (С) 10 км    10/0 средняя, верхняя 
[Ac cast|Cc]
+27.5 +17.5 54 +41  1010.2  0.1  744  269           
09 19.07.17 360 (С) 10 км    10/0 средняя, верхняя 
[Ac As|Ci fib]
+29.6 +16.8 46 +42  1009.2  -0.9  744  267           
12 19.07.17 360 (С) 10 км    10/0 средняя, верхняя 
[Ac cast|Ci]
+33.7 +15.4 33 +43  1007.6  -1.4  743  263           
15 19.07.17 010 (С) 10 км    10/0 средняя 
[Ac As]
+30.4 +17.3 45 +44  1008  0.3  743  266    +34.1       
18 19.07.17 110 (В) 10 км  {гроза}  10/8 600 м кучево-дожд., верхняя 
[Cb cap|Ci fib]
+26.4 +17.6 58 +40  1009.2  743  269           
21 19.07.17 340 (С) 10 км    3/0 средняя 
[Ac trans]
+23.1 +16.1 65 +34  1008.9  -0.5  743  273           
00 20.07.17 300 (СЗ) 10 км    ясно 
+19 +16.2 84 +32  1009.1  0.1  743  276           
03 20.07.17 тихо ()   10 км    3/0 верхняя 
[Ci fib]
+18.9 +15.4 80 +29  1009.7  0.6  743  277  +17.5        сухая 
06 20.07.17 240 (ЮЗ) 10 км    10/9 600 м верхняя 
[Sc|Ci fib]
+24.3 +15.7 59 +34  1009.8  0.4  744  272           
09 20.07.17 300 (СЗ) 10 км    10/5 600 м средняя, верхняя 
[Sc|Ac trans|Ci]
+28.3 +16.2 48 +39  1008.7  -0.8  743  268           
12 20.07.17 330 (СЗ) 10 км    10/6 600 м кучево-дожд., средняя, верхняя 
[Cb cap|Ac trans|Ci]
+28.9 +15.4 44 +39  1008.9  0.2  743  268           
15 20.07.17 340 (С) 2{10}  10 км    10/8 600 м верхняя 
[Sc|Cc]
+24.9 +13.3 48 +31  1009.2  -0.1  743  272    +29.9       
18 20.07.17 290 (З) 10 км  в посл. час ливневой дождь  10/8 600 м кучево-дожд., верхняя 
[Cb cap|Ci fib]
+19.9 +14.8 72 +30  1010.8  1.3  744  276           
21 20.07.17 280 (З) 10 км  {ливн. осадки}  10/10 600 м 
[Sc]
+19.2 +14.7 75 +28  1012.2  1.3  745  278           
00 21.07.17 270 (З) 10 км  в посл. час ливневой дождь  10/10 600 м кучево-дожд. 
[Cb cap]
+17.6 +16.4 93 +30  1012.8  0.6  746  279           
03 21.07.17 270 (З) 10 км    9/9 600 м 
[Cu Sc]
+17.8 +16.7 93 +31  1013.5  0.6  746  279  +17.4    0.8    влажная 
Время (UTC), дата Ветер
(°,м/с) 
Видим.   Явления Облачность Т
(°С)
Тd
(°С)
f(%) Тe
(°С)
Pmin
(гПа)
dP
(гПа)
Po
(мм)
O2
(г/м3)
Тmin Tmax R s Состояние
почвы

Для получения пояснительной информации подведите курсор к названию столбца.

ПОГОДА в Армавире - архив

Всё, что Вы хотите узнать о погоде в Армавире - удобно и подробно!

Выберите нужную дату (начиная с 1 января 2015* года) и нажмите кнопку "Найти".
Будут отображены архивные сводки погоды по пункту Армавир, начиная с указанной даты.


Отображать данные в формате CSV (для использования в таблицах Excel)


Внимание! Наш архив погоды предназначен исключительно для личного некоммерческого использования в познавательных целях. Если Вам необходимы официальные справки о состоянии погоды (для производственных, юридических, коммерческих и т.п. целей), обращайтесь в органы Росгидромета.

*Примечание: данная дата относится к архиву по метеостанциям СССР (Россия, СНГ, Балтия).
Архив по метеостанциям Зарубежной Европы и Азии (кроме Китая) хранится 10 дней, по другим регионам земного шара (Китай, Африка, Америка, Австралия, Океания) - 1 день.

Армавир - район местоположения метеостанции


Название, широта, долгота, высота метеостанции:
Армавир 45°ш. 41.1°д. 159 м над ур. моря [Российская Федерация]

Дополнительная информация

В oтличие oт бoльшинства пoгoдных сайтoв мы публикуем пoдрoбную метеoинфoрмацию в детальнoм прoфессиoнальнoм фoрмате.

Характеристики температуры и влажнoсти вoздуха измеряются на высoте 2 м в тени вдали oт зданий и деревьев.
Скoрoсть ветра измеряется на высoте 10 м (на урoвне рoста челoвека скoрoсть ветра ниже в 1.5-2 раза). Если метеoстанция нахoдится в гoрoде или в лесу, тo скoрoсть ветра занижена на 2-4 м/с пo сравнению с oткрытым местoм. Скoрoсть ветра над акватoриями крупных рек и oзёр, а также на вершинах хoлмoв на 2-5 м/с выше, чем в oбычных услoвиях.
Атмoсфернoе давление в разных тoчках местнoсти мoжет значительнo oтличаться oт давления на метеoстанции, в зависимoсти oт услoвий рельефа (при пoдъёме на 10 м давление пoнижается примернo на 1 мм рт.ст.).